This is the latest recevied weather packets stored in our database for station/object KE6RLG. If no packets are shown the sender has not sent any weather packets the latest 10 day(s).
| Time | Temp. | Humidity | Pressure | Rain* | Wind** | Luminosity | Snow |
|---|---|---|---|---|---|---|---|
| 1777988428 | 10.56° C | 86% | 1013.3 hPa | 0 mm | - | 46 W/m² | - |
| 1777988128 | 10.56° C | 86% | 1013.3 hPa | 0 mm | - | 30 W/m² | - |
| 1777987529 | 10.56° C | 86% | 1013.3 hPa | 0 mm | - | 17 W/m² | - |
| 1777985729 | 11.11° C | 85% | 1013.1 hPa | 0 mm | - | 1 W/m² | - |
| 1777984229 | 11.67° C | 85% | 1013.2 hPa | 0 mm | - | 0 W/m² | - |
| 1777981830 | 12.22° C | 82% | 1013.3 hPa | 0 mm | - | 0 W/m² | - |
| 1777980950 | 12.78° C | 82% | 1013.2 hPa | 0 mm | - | 0 W/m² | - |
| 1777980630 | 12.78° C | 82% | 1013.1 hPa | 0 mm | - | 0 W/m² | - |
| 1777977916 | 13.89° C | 80% | 1013.3 hPa | 0 mm | - | 0 W/m² | - |
| 1777976131 | 13.89° C | 80% | 1013.3 hPa | 0 mm | - | 0 W/m² | - |
| 1777973123 | 14.44° C | 79% | 1013.7 hPa | 0 mm | - | 0 W/m² | - |
| 1777970433 | 14.44° C | 74% | 1014.2 hPa | 0 mm | - | 0 W/m² | - |
| 1777968318 | 14.44° C | 74% | 1014.3 hPa | 0 mm | - | 0 W/m² | - |
| 1777965017 | 14.44° C | 72% | 1014.5 hPa | 0 mm | - | 0 W/m² | - |
| 1777960520 | 15° C | 79% | 1014.5 hPa | 0 mm | - | 0 W/m² | - |
| 1777959619 | 15° C | 79% | 1014.6 hPa | 0 mm | - | 0 W/m² | - |
| 1777958118 | 15° C | 81% | 1014.7 hPa | 0 mm | - | 0 W/m² | - |
| 1777955719 | 15° C | 81% | 1014.7 hPa | 0 mm | - | 0 W/m² | - |
| 1777955118 | 15° C | 80% | 1014.7 hPa | 0 mm | - | 0 W/m² | - |
| 1777953319 | 15° C | 79% | 1014.7 hPa | 0 mm | - | 0 W/m² | - |
| 1777952419 | 15° C | 78% | 1014.6 hPa | 0 mm | - | 0 W/m² | - |
| 1777952139 | 15° C | 78% | 1014.7 hPa | 0 mm | - | 0 W/m² | - |
| 1777951819 | 15° C | 78% | 1014.6 hPa | 0 mm | - | 0 W/m² | - |
| 1777950319 | 15° C | 78% | 1014.3 hPa | 0 mm | - | 0 W/m² | - |
| 1777948220 | 15.56° C | 77% | 1014.3 hPa | 0 mm | - | 10 W/m² | - |
* Rain latest hour (hover to see other rain measurements)
** Current wind speed in m/s (hover to see current wind gust speed)